Regional Weather Roundup
Issued by NWS

Home | Current Version | Previous Version | Text Only | Print | Product List | Glossary On
Versions: 1 2 3 4 5 6 7 8 9 10 11 12 13 14 15 16 17 18 19 20 21 22 23 24 25 26 27 28 29 30 31 32 33 34 35 36 37 38 39 40 41 42 43 44 45 46 47 48 49 50
000
ASUS43 KDTX 040810
RWRMI
MICHIGAN HOURLY REGIONAL WEATHER ROUNDUP
NATIONAL WEATHER SERVICE DETROIT/PONTIAC MI
400 AM EDT TUE AUG 04 2015

NOTE: "FAIR" INDICATES FEW OR NO CLOUDS BELOW 12,000 FEET WITH NO
SIGNIFICANT WEATHER AND/OR OBSTRUCTION TO VISIBILITY.

MIZ047>049-052>055-059>063-066>070-074>076-081>083-040900-
SOUTHEAST LOWER MICHIGAN

CITY           SKY/WX    TMP DP  RH WIND       PRES   REMARKS
ADRIAN         CLEAR     57  53  86 CALM      29.91S
ALMA           PTCLDY    58  56  92 CALM      29.87S
ANN ARBOR      MOCLDY    53  52  96 CALM      29.89S
BAD AXE        CLEAR     56  53  91 CALM      29.86R
CARO           CLEAR     56  55  95 CALM      29.86S
DETROIT CITY   CLEAR     64  52  64 W3        29.88S
DETROIT        PTCLDY    62  53  72 SW3       29.89S
FLINT          CLOUDY    61  54  77 S3        29.88R
GROSSE ILE     CLEAR     64  54  68 W5        29.88R
HILLSDALE      CLEAR     58  56  94 CALM      29.91S
HOWELL         PTCLDY    60  53  78 CALM      29.89R

CITY           SKY/WX    TMP DP  RH WIND       PRES   REMARKS
JACKSON        CLEAR     56  53  90 SW7       29.90S
LAMBERTVILLE   CLEAR     58  54  86 CALM      29.90S
LANSING        CLEAR     60  53  77 SW5       29.88S
LAPEER         CLOUDY    57  56  97 S3        29.88R
MASON          FAIR      56  52  85 CALM      29.89S
MONROE         CLEAR     56  54  94 CALM      29.89R
MT. CLEMENS    MOCLDY    62  54  74 W6        29.86R
PONTIAC        CLOUDY    62  53  72 W3        29.88R
PORT HURON     CLEAR     57  54  88 CALM      29.87R
TRI CITIES     PTCLDY    60  54  80 W8        29.87R
MIDLAND        FAIR      55  53  95 CALM      29.86S
TROY           CLOUDY    65  52  63 W5        29.90R
SAGINAW HB     FAIR      59  54  82 CALM      29.86R
$$
MIZ043>046-050>051-056>058-064>065-071>073-077>080-040900-
SOUTHWEST LOWER MICHIGAN

CITY           SKY/WX    TMP DP  RH WIND       PRES   REMARKS
BATTLE CREEK     N/A    N/A N/A N/A MISG      29.90S
BENTON HARBOR  CLEAR     58  56  93 CALM      29.89S
BIG RAPIDS     PTCLDY    56  55  94 CALM      29.87S
COLDWATER      PTCLDY    56  52  85 SW3       29.91R
FREMONT        FAIR      59  58  97 CALM      29.87S
HOLLAND        CLEAR     59  56  89 CALM      29.89S
GRAND RAPIDS   CLOUDY    64  54  69 SW7       29.88S
IONIA          FAIR      60  53  77 W5        29.87S
KALAMAZOO      CLEAR     61  54  77 SW5       29.90R
LUDINGTON      CLEAR     58  56  93 CALM      29.87S
MARSHALL       CLEAR     56  53  90 CALM      29.89S
MOUNT PLEASANT PTCLDY    60  55  83 W3        29.86S
MUSKEGON       CLEAR     64  58  80 W5        29.88R
SOUTH HAVEN    CLEAR     59  57  92 CALM      29.89S
$$
MIZ016>042-040900-
NORTHERN LOWER MICHIGAN

CITY           SKY/WX    TMP DP  RH WIND       PRES   REMARKS
ALPENA         CLEAR     53  51  93 CALM      29.84S
BEAVER ISLAND  HVY RAIN  61  59  94 W6        29.82R VSB 1/2
BELLAIRE       CLOUDY    57  55  94 CALM      29.84S
CADILLAC       CLEAR     49  48  96 CALM      29.86S
CHARLEVOIX     CLOUDY    61  57  88 SW6       29.85S
FRANKFORT      CLOUDY    57  56  96 CALM      29.85R
GAYLORD        CLOUDY    55  55 100 CALM      29.85R
GRAYLING       CLOUDY    49  48  97 CALM      29.86S
HARBOR SPRINGS CLOUDY    59  58  94 CALM      29.82S
HOUGHTON LAKE  CLEAR     50  49  96 CALM      29.87S FOG
MANISTEE       CLEAR     54  50  87 CALM      29.86F
OSCODA         CLOUDY    56  55  94 CALM      29.84R
PELLSTON       MOCLDY    50  49  96 CALM      29.82S
ROGERS CITY    CLEAR     55  55  97 SW6       29.83S
TRAVERSE CITY  CLOUDY    57  54  89 CALM      29.83S
$$
MIZ007>008-015-040900-
EASTERN UPPER MICHIGAN

CITY           SKY/WX    TMP DP  RH WIND       PRES   REMARKS
KINROSS        CLOUDY    55  54  94 W3        29.81S
MACKINAC ISLAN LGT RAIN  59  57  94 W5        29.80F
NEWBERRY       PTCLDY    55  54  98 CALM      29.81R
S. S. MARIE    MOCLDY    57  54  89 S3        29.79S
MUNISING         N/A     63  57  81 NW13      29.82R
$$
MIZ004>006-011>014-085-040900-
CENTRAL UPPER MICHIGAN

CITY           SKY/WX    TMP DP  RH WIND       PRES   REMARKS
MANISTIQUE     CLOUDY    59  55  88 NW6       29.81S
ESCANABA       MOCLDY    57  55  94 W6        29.83R
MENOMINEE      PTCLDY    59  54  82 W5        29.85S
SAWYER-GWINN   MOCLDY    56  53  89 NW6       29.84R
$$
MIZ001>003-009>011-084-040900-
WESTERN UPPER MICHIGAN

CITY           SKY/WX    TMP DP  RH WIND       PRES   REMARKS
IRON MOUNTAIN  CLOUDY    58  55  90 W5        29.85S
HOUGHTON       CLOUDY    55  53  93 NW6       29.84R
COPPER HARBOR    N/A     58  55  90 CALM      29.82S
IRONWOOD       CLOUDY    57  57 100 SW6       29.86S
$$

ABBREVIATIONS USED IN REMARKS
   TC - TEMPERATURE IN CELSIUS
  WCI - WIND CHILL INDEX
   HX - HEAT INDEX
  VSB - VISIBILITY



USA.gov is the U.S. government's official web portal to all federal, state and local government web resources and services.